Tracking 30995 objects as of 5-Jul-2025
HD Live streaming from Space Station
objects crossing your sky now

COSMOS 1285 DEB

Track COSMOS 1285 DEB now!


NORAD ID: 25840
Int'l Code: 1981-071J
Perigee: 4,410.7 km
Apogee: 36,419.4 km
Inclination: 69.1 °
Period: 727.1 minutes
Semi major axis: 26786 km
RCS: 0.2681 m2 (medium)
Launch date: August 4, 1981
Source: Commonwealth of Independent States (former USSR) (CIS)
Launch site: PLESETSK MISSILE AND SPACE COMPLEX (PKMTR)

Note: This is SATELLITE DEBRIS
Your satellite tracking list
Your tracking list is empty




NASA's NSSDC Master Catalog

Two Line Element Set (TLE):
1 25840U 81071J   25185.72655844  .00000315  00000-0  00000-0 0  9997
2 25840  69.0537 106.5582 5974874 352.8956 209.0266  1.98034012202210
Source of the keplerian elements: AFSPC